Showing default

GCOM W1, 38337

Orbit data source: Space-Track

GCOM W1, 38337 is a payload satellite owned by JAXA (JP) in SSO that was launched on Thu, 17 May 2012 UTC via an H-IIA 202 launch vehicle from the Tanegashima Space Center (TNSTA). Payload-class satellites include a variety of spacecraft equipped with specific instruments for various scientific and technological missions. These include communications satellites like Starlink; space stations such as the ISS; scientific satellites like the Hubble; Earth observation satellites from companies like Planet Labs, Umbra, and HawkEye 360; GPS; miniature CubeSats for education and research; and military/defense satellites.

Loading next visibility...
Identifier
38337, 2012-025A
Orbit
SSO
Country
Flag of JPJP / JPN
Related business
Manufacturer
NECTF?
Mission
Operational Civil Science
Bus & Motor
GCOM, AOCS
Mass
1,991 kg wet, 1,841 kg dry
Launch date (UTC)
2012-05-17 (13 years ago)
Launch vehicle
H-IIA 202
Launch site
Tanegashima Space Center (TNSTA)
Object type
Payload
Rocket body
Debris
Shape & HBR
Box + 2 Pan + 1 Dish, 8.8 m
Radar Cross Section
35.969 m², Large (>1 m²)

Expand to show TLE details & history
Last TLE update: 10 hours ago

TLE from 10 hours ago
0 GCOM W1
1 38337U 12025A   25309.09162606  .00000782  00000-0  18358-3 0  9998
2 38337  98.2154 247.8007 0001740  79.1510 291.4903 14.57107949716401
Epoch: 2025-11-05T02:11Z
TLE epoch observation values (Epoch: 2025-11-05T02:11:56.491Z)
Latitude
10.45961°
Longitude
168.72695°
Altitude
704.305 km
Speed
7.505 km/s
True Right ascension
16h 25m 07s
True Declination
10° 23' 53"
Sunlit
Object was in daylight at epoch
Visualization orbit readout
Latitude
Unknown
Longitude
Unknown
Altitude
Unknown
Speed
Unknown
Apparent Right ascension
Unknown
Apparent Declination
Unknown
Sunlit
N/A
Visualization observer readout
Local Sidereal Time
07:51:54
Azimuth
Unknown
Elevation
Unknown
Doppler factor
Unknown
Orbital elements
Apogee altitude
700.845 km
Perigee altitude
698.382 km
Semi-major axis
7,077.75 km
Eccentricity
0.00017
Inclination
98.2154°
RAAN
247.8007°
Arg. of periapsis
79.151°
True anomaly
291.47175°
Mean anomaly
291.4903°
Eccentric anomaly
291.48102°
Mean motion
3.64502 °/min
Orbital period
98.76 mins
BSTAR
0.00018358
Loading maneuver chart data...
Computing Atmospheric mass density...
Loading historical data...
Loading historical data...
Loading historical data...
Loading historical data...
Loading historical data...
Loading historical data...
Loading historical data...

Documentation

Showing up to 5 results
|